Weather in Ohansk

Russia / Perm Krai     57°43′18″N   55°23′19″E
temp.,
°C
wind,
m/s
gust,
m/s
humid.,
%
clouds,
%
prec.,
mm/h
press.,
hPa
HPBL,
m
23 may, mon
mon2323:000sw278878 0.0 997150
02:00−1ssw279338 0.0 997152
05:00−2s27979 0.0 998159
08:00+3ssw476930 0.0 998625
11:00+7ssw464896 0.1 9971832
14:00+9ssw4646100 0.1 9972037
17:00+8sw355684 0.1 9981314
20:00+8ssw256593 0.2 999511
24 may, tue
tue2423:00+4s2582100 0.4 1001115
02:00+2sse229393 0.0 100244
05:000sse239637 0.0 100450
08:00+5sse267399 0.0 1005386
11:00+9ssw4756100 0.3 10051596
14:00+10s4651100 0.1 10071653
17:00+12s364374 0.1 10072036
20:00+10s236330 0.1 1008124
25 may, wed
wed2523:00+5ese1179100 0.1 100910
02:00+4ese1183100 0.0 100910
05:00+3ese1192100 0.0 100912
08:00+9s117150 0.0 1008265
11:00+14wnw1147100 0.0 10081468
14:00+15e2246100 0.0 10071744
17:00+14e2257100 0.3 1006959
20:00+12ese2379100 0.8 100782
26 may, thu
thu2623:00+8wnw2692100 1.1 1006160
02:00+7wsw2596100 0.0 1007139
05:00+6wsw3696100 0.0 1006327
08:00+7wsw358760 0.1 1006523
11:00+11wsw4554100 0.1 10051669
14:00+11wsw4644100 0.0 10062126
17:00+9sw677321 0.6 10071018
20:00+8sw586082 0.1 10061426
27 may, fri
fri2723:00+4ssw278864 0.1 1007216
02:00+6ssw3980100 0.0 1006576
05:00+5s3988100 0.0 1004692
08:00+6s4995100 2.0 10031014
11:00+7ssw4892100 2.5 1003888
14:00+9s4887100 0.3 1003791
17:00+9sse3794100 2.9 1002625
20:00+9s31197100 6.1 1000732